Wind_Speed
43 37 39 38 32 33 36 36 33 31 28 26 24 20 15 11 10 10 11 13 14 16 16 18 20 21 22 22 23 24 24 24 31 39 36 33 31 31 32 34 35 34 37
38 39 37 33 34 36 36 35 32 28 26 25 21 16 13 10 9 11 12 14 16 16 17 18 20 22 23 24 25 24 23 26 28 35 34 33 32 37 37 34 33 33 42
35 36 36 34 36 38 37 34 30 27 25 22 17 13 10 8 10 11 13 14 15 16 17 20 22 23 25 25 25 25 27 29 26 31 38 36 37 35 34 36 38 41 30
34 34 37 38 39 37 34 33 29 25 21 19 15 11 8 8 11 13 14 15 16 17 18 20 22 24 24 25 27 28 25 27 29 32 36 38 36 36 31 38 38 34 45
31 34 37 38 38 36 34 29 25 24 20 15 10 8 7 9 12 14 15 16 17 18 19 19 21 22 23 24 20 22 25 26 30 32 35 37 31 41 35 32 38 47 43
31 37 38 37 36 34 31 27 23 19 15 11 8 6 8 11 12 15 16 16 17 19 20 20 22 22 22 17 19 20 21 24 29 34 35 39 38 33 35 43 42 43 43
37 38 38 37 32 25 28 23 21 16 10 6 5 6 9 14 13 15 16 17 18 19 19 20 22 21 21 22 24 22 26 26 27 31 35 33 36 38 40 41 41 38 42
38 36 30 28 25 25 21 19 14 10 7 4 4 8 11 12 14 14 16 18 19 18 17 17 18 21 20 21 24 25 29 34 34 31 30 33 34 35 35 36 36 39 42
27 28 27 28 27 21 17 15 11 7 4 4 7 9 9 11 15 16 18 19 19 18 16 17 18 17 20 20 23 29 35 36 36 31 26 28 29 29 26 29 33 35 42
30 28 26 21 20 19 14 10 7 3 3 5 6 7 9 10 14 18 20 21 21 18 18 18 18 19 19 20 25 30 35 37 30 30 33 32 26 27 26 24 27 34 41
22 22 22 21 17 13 10 7 3 2 2 3 5 7 10 13 15 18 21 21 18 19 22 21 23 21 20 24 25 28 30 25 29 32 30 29 28 27 28 28 29 31 36
27 25 22 18 14 10 6 3 2 1 2 4 6 8 8 11 15 18 15 12 15 19 21 23 22 23 25 24 23 22 21 23 27 28 29 31 32 32 32 33 31 29 29
24 21 18 13 9 6 5 4 2 1 3 5 7 10 12 15 17 16 16 18 21 18 20 21 24 24 23 20 21 19 19 22 24 27 30 30 31 33 34 33 28 30 33
17 15 12 10 9 7 4 2 2 4 6 8 11 14 16 18 18 18 20 21 21 20 23 27 27 23 17 20 21 19 20 21 24 26 28 29 32 34 33 32 35 35 38
15 13 11 9 6 4 3 4 5 7 9 12 14 16 18 18 17 17 19 21 21 20 24 25 22 20 23 22 21 21 21 25 27 27 28 31 33 33 33 33 34 36 36
11 9 7 5 4 4 5 5 7 9 12 14 15 16 15 17 17 18 20 19 18 20 21 21 21 21 22 23 23 24 24 27 28 28 28 30 33 34 35 35 35 34 36
7 7 5 4 4 5 6 7 9 11 13 15 15 17 18 17 17 20 19 18 20 17 18 20 20 21 22 22 23 25 28 29 29 28 29 31 33 33 33 37 37 36 37
5 4 3 3 4 6 7 9 11 14 15 15 14 15 14 15 19 18 16 17 20 18 18 18 20 21 21 22 23 26 29 30 29 29 32 32 31 33 37 38 37 37 37
3 2 2 4 5 7 9 11 13 14 14 16 16 16 17 19 19 18 16 17 19 19 18 19 20 20 19 21 23 26 29 30 30 30 30 31 33 36 36 37 36 35 34
1 2 4 6 7 9 12 13 13 14 15 16 16 17 18 20 21 19 18 18 18 18 18 19 18 17 19 21 24 27 29 29 28 29 30 33 34 35 36 35 34 34 34
2 3 5 7 10 12 13 13 14 15 15 16 16 17 15 17 19 19 19 18 17 18 18 18 17 17 19 22 25 28 27 26 27 30 32 33 35 35 31 30 30 32 31
4 5 7 9 12 13 13 13 14 15 16 17 17 17 16 16 18 18 18 17 16 16 16 17 17 18 20 23 25 25 25 25 28 31 34 34 34 30 29 30 31 30 29
5 7 9 12 13 13 14 14 15 16 16 16 17 17 16 17 17 17 16 15 15 15 15 15 17 18 20 22 23 22 21 24 29 30 32 35 30 28 28 29 27 28 29
7 10 12 13 13 15 15 15 16 16 16 16 17 16 16 17 17 15 14 13 14 14 14 15 18 20 21 21 21 15 18 22 26 29 29 27 23 24 24 25 26 26 27
10 12 13 14 15 16 16 16 16 16 16 17 17 16 16 16 15 13 11 12 13 14 16 17 19 19 20 22 17 12 16 19 21 22 22 23 24 24 25 26 25 26 26
12 14 14 15 16 17 17 17 17 17 17 17 15 14 15 16 14 12 11 12 14 15 17 18 19 18 19 20 12 13 16 17 19 20 22 24 24 23 24 25 24 25 28
Wind_Direction
200 193 201 199 199 199 193 194 196 195 198 197 200 201 210 227 249 272 289 298 305 307 306 304 304 302 300 300 301 301 299 297 293 298 304 309 306 307 307 302 307 299 302
196 194 195 199 194 186 187 190 190 192 193 192 192 198 214 236 261 280 293 299 303 306 305 303 301 301 301 300 300 301 294 293 296 301 305 306 304 305 310 311 308 303 309
190 194 193 189 183 185 182 185 186 189 185 184 190 204 223 247 271 287 296 300 304 304 304 303 302 300 301 303 300 295 296 300 301 299 304 307 310 314 316 312 312 309 301
188 187 184 180 181 180 180 181 183 183 181 185 196 212 234 261 285 295 298 302 303 303 303 301 301 300 300 299 297 302 311 312 308 308 309 310 314 318 311 310 312 304 307
179 176 175 177 176 175 175 175 173 175 182 186 198 221 254 284 298 299 300 304 305 306 304 298 296 293 287 293 300 304 306 305 307 309 308 309 313 311 312 312 301 309 311
172 169 170 170 170 171 167 166 166 170 178 189 211 249 275 293 304 299 301 307 308 308 307 303 301 301 306 298 297 299 297 303 303 308 310 306 308 307 304 307 309 312 306
163 165 166 166 162 161 158 160 167 167 183 194 230 276 297 302 300 299 304 309 312 312 311 308 309 311 308 306 308 303 304 305 305 301 302 303 302 305 306 308 311 308 300
163 161 158 152 148 159 152 159 164 170 175 212 274 298 292 294 297 301 307 313 315 316 312 309 305 305 309 308 308 307 303 304 306 307 299 298 299 304 306 308 305 301 301
148 141 138 148 155 155 168 161 156 167 202 284 302 287 294 297 299 307 310 315 319 318 310 298 301 306 300 312 307 305 306 308 309 309 303 303 303 301 302 304 302 306 303
140 142 149 149 156 157 152 151 162 173 283 281 282 293 297 299 306 311 319 325 322 320 320 320 315 311 311 308 309 308 306 307 316 317 313 313 316 318 315 306 299 295 295
149 145 143 149 157 150 146 139 154 244 270 281 296 306 314 316 319 322 319 325 332 333 323 319 318 320 315 310 307 301 303 315 310 308 313 321 325 325 324 320 315 310 305
143 148 146 146 139 138 150 145 147 197 280 296 309 316 314 309 312 317 320 321 323 313 314 313 318 318 309 310 306 310 315 309 304 314 319 322 325 325 323 321 318 312 309
143 138 139 141 140 133 133 139 140 325 319 321 324 326 322 317 316 314 305 305 313 316 308 314 310 313 315 312 316 315 313 313 318 319 320 322 324 325 324 324 323 322 319
139 135 132 131 133 128 115 78 4 350 342 335 327 323 319 318 316 311 309 314 322 323 326 318 315 317 318 313 317 321 321 323 322 320 321 324 327 328 328 331 327 330 325
129 128 128 120 113 97 66 28 356 351 335 329 324 321 319 321 323 319 317 320 324 324 311 312 323 327 323 327 328 330 331 334 334 330 328 328 329 330 331 333 331 330 323
119 118 115 105 79 48 20 358 341 335 330 326 328 333 331 323 322 321 321 324 323 314 315 318 323 325 329 330 331 332 337 337 336 332 330 330 331 331 332 334 332 330 327
115 111 96 68 36 5 351 343 337 333 333 333 332 327 325 326 328 327 330 324 312 323 317 323 325 329 330 330 331 334 335 337 336 333 331 332 333 332 332 334 335 332 329
104 87 60 19 355 349 345 338 334 332 332 332 330 330 327 322 326 331 327 310 320 327 330 328 327 331 331 331 334 334 335 337 336 335 336 334 334 333 333 334 335 332 331
94 60 12 359 349 342 337 335 333 331 330 330 330 331 328 329 331 332 330 328 329 330 332 330 331 333 333 333 334 334 334 336 338 336 337 336 336 336 335 337 336 336 332
85 11 353 344 340 338 337 333 330 329 330 332 332 332 334 336 338 338 338 335 333 332 331 331 335 336 335 335 334 335 336 340 341 339 338 337 339 339 338 338 338 336 335
3 342 338 337 338 336 332 330 330 329 331 331 333 335 333 326 333 334 333 334 335 334 335 336 339 339 337 336 338 338 338 341 342 341 340 341 343 341 342 341 340 341 340
327 335 338 337 334 330 329 328 329 331 330 330 332 331 332 331 331 331 333 336 338 340 338 338 340 340 340 340 339 339 340 342 344 345 345 345 346 347 346 344 345 342 337
328 333 333 332 331 329 328 328 329 329 328 329 330 330 330 331 332 334 336 338 342 345 345 341 340 343 343 342 342 341 341 346 350 350 348 347 349 348 345 344 341 342 343
326 331 331 330 329 328 328 329 329 326 326 326 327 327 328 330 333 335 336 342 350 354 350 348 347 344 344 344 344 347 348 352 353 352 347 345 346 342 345 346 346 347 347
331 331 329 329 327 326 328 327 325 325 326 326 326 326 328 331 332 331 334 345 353 355 358 355 351 347 348 346 346 354 352 354 354 349 349 346 346 349 351 350 347 347 350
330 329 328 327 327 329 328 326 325 328 326 324 324 325 329 332 329 325 329 338 347 353 354 356 355 352 350 347 352 357 354 348 354 352 347 346 344 347 352 351 351 355 0
Height
1408 1415 1422 1428 1433 1439 1444 1450 1456 1460 1465 1470 1475 1479 1482 1484 1486 1487 1487 1486 1485 1484 1483 1482 1481 1479 1478 1476 1475 1473 1470 1468 1461 1455 1454 1451 1448 1444 1440 1437 1432 1427 1422
1406 1413 1420 1428 1430 1436 1441 1447 1453 1458 1463 1468 1473 1477 1480 1482 1483 1483 1483 1482 1481 1479 1478 1477 1476 1474 1472 1470 1468 1466 1465 1463 1458 1450 1448 1445 1442 1437 1432 1427 1423 1420 1415
1404 1412 1417 1424 1428 1434 1439 1446 1451 1456 1462 1467 1471 1474 1477 1479 1480 1481 1480 1479 1477 1475 1473 1472 1471 1469 1466 1464 1463 1460 1459 1456 1452 1447 1440 1439 1434 1430 1424 1420 1415 1410 1406
1403 1410 1415 1421 1427 1432 1436 1444 1448 1456 1461 1466 1469 1471 1473 1476 1477 1478 1477 1475 1473 1471 1469 1467 1465 1463 1461 1459 1457 1455 1452 1449 1446 1441 1436 1431 1427 1423 1419 1413 1405 1403 1396
1405 1409 1415 1420 1426 1429 1436 1442 1449 1455 1459 1463 1466 1469 1471 1472 1474 1474 1473 1470 1468 1466 1464 1462 1460 1458 1456 1454 1452 1450 1447 1444 1440 1435 1429 1424 1421 1417 1413 1408 1401 1394 1388
1407 1410 1415 1420 1427 1431 1436 1443 1450 1454 1460 1462 1465 1465 1468 1469 1470 1471 1469 1466 1463 1461 1458 1456 1455 1453 1451 1449 1447 1446 1444 1439 1434 1429 1424 1420 1415 1412 1408 1402 1395 1388 1376
1406 1411 1415 1420 1428 1434 1435 1443 1451 1453 1457 1460 1463 1463 1465 1465 1466 1467 1464 1461 1458 1456 1453 1451 1449 1448 1446 1443 1441 1438 1435 1433 1430 1426 1419 1415 1409 1406 1401 1394 1388 1383 1375
1407 1412 1417 1422 1426 1435 1441 1447 1450 1453 1456 1459 1460 1462 1462 1461 1462 1462 1459 1456 1454 1451 1449 1447 1446 1444 1441 1438 1435 1431 1428 1425 1422 1418 1414 1408 1404 1399 1394 1389 1382 1376 1368
1416 1418 1416 1432 1436 1432 1444 1446 1448 1452 1455 1457 1458 1460 1459 1458 1458 1456 1454 1452 1449 1446 1445 1443 1441 1439 1436 1434 1430 1426 1420 1417 1414 1410 1406 1402 1397 1393 1388 1383 1376 1370 1360
1416 1420 1426 1430 1438 1444 1444 1446 1449 1452 1453 1455 1457 1457 1456 1456 1454 1452 1449 1446 1444 1441 1440 1437 1435 1433 1431 1429 1426 1420 1414 1409 1405 1401 1397 1393 1388 1384 1381 1377 1371 1365 1358
1417 1427 1430 1436 1442 1443 1444 1447 1450 1452 1453 1454 1455 1454 1453 1452 1450 1448 1445 1442 1439 1437 1435 1433 1431 1428 1427 1424 1420 1415 1409 1406 1401 1397 1391 1386 1381 1377 1373 1369 1365 1360 1352
1427 1434 1438 1440 1441 1443 1447 1448 1450 1452 1452 1453 1452 1452 1450 1449 1448 1445 1442 1440 1438 1435 1432 1429 1426 1424 1421 1416 1413 1408 1406 1402 1397 1391 1386 1380 1375 1370 1366 1361 1356 1352 1346
1432 1434 1438 1441 1442 1444 1447 1449 1450 1450 1450 1450 1449 1448 1447 1446 1444 1441 1439 1437 1434 1431 1428 1425 1421 1418 1413 1411 1407 1404 1400 1396 1392 1386 1380 1375 1371 1365 1359 1353 1348 1343 1336
1434 1437 1439 1442 1444 1446 1447 1448 1448 1448 1448 1447 1446 1445 1444 1442 1439 1437 1434 1431 1428 1425 1422 1419 1416 1412 1409 1407 1402 1399 1395 1392 1387 1382 1376 1371 1366 1359 1353 1348 1340 1334 1326
1437 1439 1441 1443 1444 1445 1446 1446 1446 1447 1446 1445 1443 1441 1439 1437 1435 1433 1430 1427 1424 1423 1419 1414 1410 1407 1404 1400 1397 1394 1390 1386 1382 1377 1372 1366 1360 1354 1348 1342 1335 1328 1321
1438 1440 1442 1443 1444 1445 1445 1446 1446 1445 1444 1442 1440 1438 1436 1434 1431 1428 1426 1423 1421 1418 1414 1410 1406 1403 1400 1396 1393 1389 1386 1382 1378 1373 1368 1362 1356 1349 1342 1335 1330 1323 1314
1440 1441 1443 1443 1444 1444 1444 1444 1444 1442 1441 1438 1436 1435 1433 1431 1428 1425 1422 1421 1417 1414 1410 1407 1404 1400 1397 1394 1391 1387 1382 1378 1373 1368 1363 1357 1351 1344 1338 1330 1323 1317 1309
1441 1442 1443 1443 1444 1443 1443 1442 1441 1440 1438 1436 1435 1433 1430 1428 1425 1422 1420 1416 1412 1409 1406 1403 1401 1397 1394 1391 1388 1384 1379 1374 1369 1363 1358 1353 1347 1340 1332 1326 1319 1312 1304
1442 1443 1443 1443 1443 1442 1442 1441 1439 1437 1435 1433 1431 1429 1427 1424 1421 1418 1415 1412 1409 1406 1403 1400 1398 1394 1391 1388 1385 1381 1376 1370 1364 1359 1354 1348 1342 1335 1328 1321 1314 1308 1302
1443 1443 1443 1443 1443 1442 1440 1439 1437 1435 1433 1430 1428 1425 1422 1420 1417 1414 1412 1409 1407 1404 1401 1398 1395 1392 1389 1385 1381 1377 1371 1366 1361 1356 1350 1344 1337 1331 1324 1317 1311 1303 1297
1443 1443 1443 1443 1441 1440 1438 1436 1434 1432 1429 1427 1425 1422 1420 1417 1414 1412 1409 1407 1404 1402 1398 1395 1392 1390 1386 1382 1378 1373 1368 1363 1358 1352 1346 1340 1333 1326 1321 1314 1308 1301 1294
1444 1443 1442 1441 1440 1438 1436 1434 1431 1429 1427 1424 1422 1420 1417 1415 1412 1410 1407 1405 1402 1399 1396 1393 1390 1387 1383 1379 1375 1369 1365 1360 1355 1349 1342 1336 1330 1324 1318 1311 1305 1299 1293
1443 1442 1441 1439 1438 1435 1433 1431 1428 1426 1424 1422 1419 1417 1415 1412 1410 1407 1405 1403 1400 1397 1394 1391 1388 1385 1381 1377 1372 1367 1363 1358 1353 1347 1340 1334 1328 1322 1316 1311 1305 1298 1291
1441 1440 1439 1437 1435 1433 1430 1427 1425 1423 1421 1419 1416 1414 1412 1410 1407 1405 1404 1401 1398 1395 1392 1389 1386 1382 1378 1374 1369 1365 1362 1357 1351 1344 1340 1335 1329 1323 1317 1311 1304 1298 1291
1440 1438 1436 1434 1432 1430 1427 1425 1423 1420 1418 1416 1414 1412 1410 1407 1405 1403 1401 1399 1396 1393 1390 1387 1384 1380 1376 1371 1367 1364 1360 1356 1351 1346 1340 1335 1329 1322 1316 1310 1304 1297 1292
1437 1435 1434 1431 1429 1426 1424 1422 1420 1417 1415 1413 1411 1409 1407 1404 1402 1401 1399 1396 1393 1391 1388 1385 1382 1378 1374 1369 1365 1362 1358 1354 1349 1345 1340 1334 1328 1321 1316 1310 1304 1298 1292